Regional Weather Roundup
Issued by NWS Charleston, WV

Home | Current Version | Previous Version | Graphics & Text | Print | Product List | Glossary On
Versions: 1 2 3 4 5 6 7 8 9 10 11 12 13 14 15 16 17 18 19 20 21 22 23 24 25 26 27 28 29 30 31 32 33 34 35 36 37 38 39 40 41 42 43 44 45 46 47 48
000
ASUS41 KRLX 040110
RWRRLX
West Virginia Regional Weather Roundup
National Weather Service Charleston WV
900 PM EDT MON AUG 03 2015

Note: "fair" indicates few or no clouds below 12,000 feet with no
significant weather and/or obstructions to visibility.

WVZ003-040200-
Northern Panhandle of West Virginia

CITY           SKY/WX    TMP DP  RH WIND       PRES   REMARKS
WHEELING       CLOUDY    76  64  66 SW9       29.83F
$$

WVZ009-040200-
Northwest West Virginia

CITY           SKY/WX    TMP DP  RH WIND       PRES   REMARKS
PARKERSBURG    CLOUDY    80  67  64 SW3       29.87S
$$

WVZ006-040200-
Western West Virginia

CITY           SKY/WX    TMP DP  RH WIND       PRES   REMARKS
HUNTINGTON     CLOUDY    80  69  69 S3        29.86S
$$

WVZ015-040200-
West Central West Virginia

CITY           SKY/WX    TMP DP  RH WIND       PRES   REMARKS
CHARLESTON     MOCLDY    79  67  66 CALM      29.88F
$$

WVZ022-031-040200-
North Central West Virginia

CITY           SKY/WX    TMP DP  RH WIND       PRES   REMARKS
CLARKSBURG     CLOUDY    75  64  68 S6        29.87F
MORGANTOWN     CLOUDY    81  59  47 S6        29.88R
$$

WVZ025-035-042-045-040200-
Southern West Virginia

CITY           SKY/WX    TMP DP  RH WIND       PRES   REMARKS
BECKLEY        CLEAR     72  61  68 S3        29.99F
LOGAN          NOT AVBL
BLUEFIELD      CLEAR     75  59  57 SW3       30.04S
LEWISBURG      CLEAR     73  62  68 CALM      29.98F
$$

WVZ047-040200-
Northern Mountains of West Virginia

CITY           SKY/WX    TMP DP  RH WIND       PRES   REMARKS
ELKINS         PTCLDY    70  62  76 CALM      29.95R
$$

WVZ052-040200-
Eastern Panhandle of West Virginia

CITY           SKY/WX    TMP DP  RH WIND       PRES   REMARKS
MARTINSBURG    PTCLDY    79  64  60 S3        29.83S
PETERSBURG     CLEAR     73  61  65 W3        29.87S
$$



USA.gov is the U.S. government's official web portal to all federal, state and local government web resources and services.